STARLINK-34222 (64191 NORAD) Tracking and Keplerian Element Data

This shows tracking and keplerian element data for the satellite.

Feedback or suggestion? Click here.




ElementValue
Catalog64191
NameSTARLINK-34222
Epoch Orbit3271
Epoch Day353.29997559
Epoch Year2025
RAAN104.7747
Inclination53.1593
Eccentricity0.00017
Argument of Perigee87.9998
Mean Anonmoly272.1197
Mean Motion15.30205794
Decay Rate0.00022326
L11 64191U 25113X 25353.29997559 .00022326 00000+0 76351-3 0 9995
L22 64191 53.1593 104.7747 0001700 87.9998 272.1197 15.30205794 32715



Live tracking and technical data element details for STARLINK-34222 (NORAD 64191). STARLINK-34222 can be tracked NOW for your location showing map with azimuth and elevation plus other details from your city location.







IsCatalogInMostPopularTable: catalog: 64191, numindb: 7
Update: records affected: 1



GetName: 64191 STARLINK-34222

Hit Count: updated at: Sat, 11 Apr 2026 21:35:07 GMT